ATN9739 LEAM-KMKE

Flight info

Callsign ATN9739
Flight time N/A
Altitude 38000
Route ESILA2T ESILA N865 VTB/N0453F390 L155 ZMR N733 DESAT/N0453F380 DCT STG DCT PASAS/M080F370 DCT 48N020W 51N030W 51N040W 5030N05000W DCT BUDAR/N0469F400 DCT MIILS/N0474F430 DCT VIDGO Q848 LETAK Q824 MENKO Q848 HHIPP DCT DABJU DCT LEEDN GOPAC3
Aircraft B762/H-SDFGIRWY/S

Departure

Time 2026-04-23 01:41
Airport Almería Airport (LEAM)

Arrival

Time N/A
Airport General Mitchell International Airport (KMKE)
Time Latitude Longitude Altitude Speed Heading
2026-04-23 01:22 36.84677 -2.37162 71 ft 0 kts 149°
2026-04-23 01:34 36.84676 -2.37161 69 ft 1 kts 149°
2026-04-23 01:34 36.84655 -2.37146 68 ft 5 kts 154°
2026-04-23 01:35 36.84620 -2.37142 67 ft 5 kts 205°
2026-04-23 01:35 36.84604 -2.37169 67 ft 4 kts 244°
2026-04-23 01:35 36.84595 -2.37204 66 ft 5 kts 253°
2026-04-23 01:35 36.84584 -2.37248 66 ft 6 kts 253°
2026-04-23 01:36 36.84570 -2.37305 66 ft 8 kts 253°
2026-04-23 01:36 36.84549 -2.37387 65 ft 12 kts 253°
2026-04-23 01:36 36.84513 -2.37488 63 ft 14 kts 218°
2026-04-23 01:36 36.84453 -2.37517 62 ft 10 kts 220°
2026-04-23 01:37 36.84421 -2.37609 60 ft 14 kts 254°
2026-04-23 01:37 36.84390 -2.37737 58 ft 17 kts 253°
2026-04-23 01:37 36.84351 -2.37894 56 ft 21 kts 253°
2026-04-23 01:37 36.84307 -2.38079 51 ft 23 kts 253°
2026-04-23 01:38 36.84256 -2.38281 47 ft 25 kts 253°
2026-04-23 01:38 36.84202 -2.38500 43 ft 27 kts 253°
2026-04-23 01:38 36.84156 -2.38688 41 ft 16 kts 252°
2026-04-23 01:38 36.84094 -2.38783 40 ft 14 kts 196°
2026-04-23 01:39 36.84024 -2.38739 39 ft 11 kts 118°
2026-04-23 01:39 36.83999 -2.38663 40 ft 8 kts 105°
2026-04-23 01:39 36.84001 -2.38604 40 ft 0 kts 73°
2026-04-23 01:40 36.84004 -2.38592 40 ft 9 kts 73°
2026-04-23 01:40 36.84064 -2.38349 44 ft 50 kts 73°
2026-04-23 01:40 36.84203 -2.37784 55 ft 85 kts 73°
2026-04-23 01:40 36.84393 -2.37008 63 ft 108 kts 73°
2026-04-23 01:41 36.84650 -2.35965 71 ft 145 kts 72°
2026-04-23 01:41 36.84975 -2.34648 249 ft 166 kts 73°
2026-04-23 01:41 36.85312 -2.33233 711 ft 173 kts 70°
2026-04-23 01:41 36.85702 -2.31840 1314 ft 172 kts 69°
2026-04-23 01:42 36.86070 -2.30422 1688 ft 175 kts 72°
2026-04-23 01:42 36.86429 -2.28933 1928 ft 186 kts 72°
2026-04-23 01:42 36.86807 -2.27334 2136 ft 200 kts 73°
2026-04-23 01:42 36.87164 -2.25603 2330 ft 216 kts 85°
2026-04-23 01:43 36.86854 -2.23709 2557 ft 235 kts 119°
2026-04-23 01:43 36.85677 -2.22281 2996 ft 245 kts 153°
2026-04-23 01:43 36.84056 -2.21679 3599 ft 246 kts 166°
2026-04-23 01:43 36.82400 -2.21157 4168 ft 248 kts 163°
2026-04-23 01:44 36.80743 -2.20577 4744 ft 249 kts 163°
2026-04-23 01:44 36.79081 -2.19977 5341 ft 250 kts 162°
2026-04-23 01:44 36.77375 -2.19661 5913 ft 254 kts 185°
2026-04-23 01:44 36.75717 -2.20432 6489 ft 259 kts 216°
2026-04-23 01:45 36.74587 -2.22154 7030 ft 264 kts 245°
2026-04-23 01:45 36.73985 -2.24294 7661 ft 264 kts 251°
2026-04-23 01:45 36.73413 -2.26444 8304 ft 264 kts 251°
2026-04-23 01:45 36.72856 -2.28601 8931 ft 264 kts 251°
2026-04-23 01:46 36.72307 -2.30761 9547 ft 264 kts 252°
2026-04-23 01:46 36.71921 -2.33011 9981 ft 276 kts 269°
2026-04-23 01:46 36.72356 -2.35420 10238 ft 297 kts 296°
2026-04-23 01:46 36.73631 -2.37519 10535 ft 316 kts 314°
2026-04-23 01:47 36.75254 -2.39445 10868 ft 331 kts 314°
2026-04-23 01:47 36.76919 -2.41503 11335 ft 343 kts 313°
2026-04-23 01:47 36.78596 -2.43592 12174 ft 344 kts 312°
2026-04-23 01:47 36.80272 -2.45700 12882 ft 346 kts 311°
2026-04-23 01:48 36.81951 -2.47819 13603 ft 347 kts 311°
2026-04-23 01:48 36.83652 -2.49978 14304 ft 350 kts 311°
2026-04-23 01:48 36.85357 -2.52144 14919 ft 354 kts 311°
2026-04-23 01:48 36.87082 -2.54337 15551 ft 357 kts 311°
2026-04-23 01:49 36.88812 -2.56538 16199 ft 359 kts 312°
2026-04-23 01:49 36.90558 -2.58763 16778 ft 363 kts 312°
2026-04-23 01:49 36.92319 -2.61007 17390 ft 366 kts 312°
2026-04-23 01:49 36.94100 -2.63278 18006 ft 369 kts 312°
2026-04-23 01:50 36.95907 -2.65584 18576 ft 373 kts 312°
2026-04-23 01:50 36.97718 -2.67896 19231 ft 375 kts 312°
2026-04-23 01:50 36.99539 -2.70224 19874 ft 378 kts 312°
2026-04-23 01:50 37.01374 -2.72571 20506 ft 381 kts 312°
2026-04-23 01:51 37.03223 -2.74938 21104 ft 384 kts 312°
2026-04-23 01:51 37.04985 -2.77435 21639 ft 386 kts 303°
2026-04-23 01:51 37.06279 -2.80355 22218 ft 387 kts 295°
2026-04-23 01:51 37.07501 -2.83379 22783 ft 390 kts 295°
2026-04-23 01:52 37.08717 -2.86414 23338 ft 393 kts 295°
2026-04-23 01:52 37.09938 -2.89467 23884 ft 397 kts 295°
2026-04-23 01:52 37.11172 -2.92567 24367 ft 401 kts 295°
2026-04-23 01:52 37.12410 -2.95683 24909 ft 404 kts 295°
2026-04-23 01:53 37.13656 -2.98824 25454 ft 405 kts 295°
2026-04-23 01:53 37.14905 -3.01979 25910 ft 409 kts 295°
2026-04-23 01:53 37.16174 -3.05187 26438 ft 411 kts 295°
2026-04-23 01:53 37.17439 -3.08389 26918 ft 414 kts 295°
2026-04-23 01:54 37.18710 -3.11611 27381 ft 416 kts 295°
2026-04-23 01:54 37.19988 -3.14850 27848 ft 418 kts 295°
2026-04-23 01:54 37.21275 -3.18119 28280 ft 421 kts 295°
2026-04-23 01:54 37.22569 -3.21409 28694 ft 425 kts 295°
2026-04-23 01:55 37.23868 -3.24716 29171 ft 426 kts 295°
2026-04-23 01:55 37.25187 -3.28069 29527 ft 430 kts 295°
2026-04-23 01:55 37.26535 -3.31411 29930 ft 433 kts 295°
2026-04-23 01:55 37.27888 -3.34772 30344 ft 435 kts 296°
2026-04-23 01:56 37.29247 -3.38148 30751 ft 437 kts 295°
2026-04-23 01:56 37.30606 -3.41529 31258 ft 436 kts 295°
2026-04-23 01:56 37.31960 -3.44902 31770 ft 434 kts 295°
2026-04-23 01:56 37.33307 -3.48261 32320 ft 432 kts 295°
2026-04-23 01:57 37.34673 -3.51624 32769 ft 432 kts 297°
2026-04-23 01:57 37.36336 -3.54739 33263 ft 432 kts 307°
2026-04-23 01:57 37.38410 -3.57443 33710 ft 434 kts 317°
2026-04-23 01:57 37.40846 -3.59665 34133 ft 436 kts 327°
2026-04-23 01:58 37.43568 -3.61338 34525 ft 440 kts 336°
2026-04-23 01:58 37.46503 -3.62404 34920 ft 443 kts 346°
2026-04-23 01:58 37.49568 -3.62827 35364 ft 446 kts 355°
2026-04-23 01:58 37.52682 -3.62871 35760 ft 445 kts 356°
2026-04-23 01:59 37.55763 -3.62893 36140 ft 445 kts 356°
2026-04-23 01:59 37.58845 -3.62898 36482 ft 444 kts 356°
2026-04-23 01:59 37.61921 -3.62890 36849 ft 443 kts 357°
2026-04-23 01:59 37.64995 -3.62877 37129 ft 444 kts 357°
2026-04-23 02:00 37.68067 -3.62858 37448 ft 443 kts 357°
2026-04-23 02:00 37.71137 -3.62835 37743 ft 442 kts 357°
2026-04-23 02:00 37.74224 -3.62812 38001 ft 442 kts 357°
2026-04-23 02:00 37.77267 -3.62787 38042 ft 436 kts 357°
2026-04-23 02:01 37.83301 -3.62738 38041 ft 435 kts 357°
2026-04-23 02:01 37.89345 -3.62689 38040 ft 437 kts 357°
2026-04-23 02:02 37.95442 -3.62638 38027 ft 439 kts 357°
2026-04-23 02:02 38.01540 -3.62587 38017 ft 441 kts 357°
2026-04-23 02:03 38.07663 -3.62536 38012 ft 441 kts 357°
2026-04-23 02:03 38.13785 -3.62485 38009 ft 441 kts 357°
2026-04-23 02:04 38.19917 -3.62041 38014 ft 442 kts
2026-04-23 02:04 38.26034 -3.61441 38010 ft 442 kts
2026-04-23 02:05 38.32151 -3.60846 38022 ft 443 kts
2026-04-23 02:05 38.38290 -3.60251 38027 ft 443 kts
2026-04-23 02:06 38.44414 -3.59656 38038 ft 443 kts
2026-04-23 02:06 38.50533 -3.59061 38043 ft 442 kts
2026-04-23 02:07 38.56641 -3.58467 38044 ft 442 kts
2026-04-23 02:07 38.62776 -3.57869 38042 ft 442 kts
2026-04-23 02:08 38.68889 -3.57273 38041 ft 442 kts
2026-04-23 02:08 38.74997 -3.56676 38034 ft 442 kts
2026-04-23 02:09 38.81136 -3.56074 38030 ft 443 kts
2026-04-23 02:09 38.87259 -3.55473 38032 ft 443 kts
2026-04-23 02:10 38.93384 -3.54871 38024 ft 443 kts
2026-04-23 02:10 38.99496 -3.54269 38021 ft 442 kts
2026-04-23 02:11 39.05628 -3.53660 38025 ft 442 kts
2026-04-23 02:11 39.11741 -3.53053 38024 ft 442 kts
2026-04-23 02:12 39.17851 -3.52444 38027 ft 441 kts
2026-04-23 02:12 39.23980 -3.51832 38026 ft 442 kts
2026-04-23 02:13 39.30097 -3.51222 38028 ft 443 kts
2026-04-23 02:13 39.36220 -3.50608 38030 ft 443 kts
2026-04-23 02:14 39.42340 -3.49994 38031 ft 442 kts
2026-04-23 02:14 39.48477 -3.49378 38030 ft 442 kts
2026-04-23 02:15 39.57655 -3.48454 38032 ft 443 kts
2026-04-23 02:16 39.63778 -3.47841 38030 ft 443 kts
2026-04-23 02:16 39.69920 -3.47237 38030 ft 442 kts 359°
2026-04-23 02:17 39.75885 -3.48145 38039 ft 431 kts 339°
2026-04-23 02:17 39.81128 -3.51599 38038 ft 422 kts 319°
2026-04-23 02:18 39.85511 -3.56637 38025 ft 421 kts 313°
2026-04-23 02:18 39.89698 -3.61906 38028 ft 421 kts 312°
2026-04-23 02:19 39.93808 -3.67256 38038 ft 419 kts 311°
2026-04-23 02:19 39.97895 -3.72648 38022 ft 420 kts 311°
2026-04-23 02:20 40.01989 -3.78086 38014 ft 420 kts 311°
2026-04-23 02:20 40.06059 -3.83509 38022 ft 420 kts 310°
2026-04-23 02:21 40.10125 -3.88941 38033 ft 421 kts 310°
2026-04-23 02:21 40.14209 -3.94406 38033 ft 421 kts 310°
2026-04-23 02:22 40.18278 -3.99862 38019 ft 421 kts 310°
2026-04-23 02:22 40.22344 -4.05326 38035 ft 422 kts 310°
2026-04-23 02:23 40.26420 -4.10813 38036 ft 422 kts 310°
2026-04-23 02:23 40.30507 -4.16324 38041 ft 422 kts 310°
2026-04-23 02:24 40.34573 -4.21816 38042 ft 422 kts 310°
2026-04-23 02:24 40.38773 -4.27174 38056 ft 425 kts 315°
2026-04-23 02:25 40.43193 -4.32323 38058 ft 425 kts 314°
2026-04-23 02:25 40.47586 -4.37468 38068 ft 425 kts 314°
2026-04-23 02:26 40.51979 -4.42624 38073 ft 426 kts 314°
2026-04-23 02:26 40.56376 -4.47796 38074 ft 426 kts 314°
2026-04-23 02:27 40.60785 -4.52991 38073 ft 426 kts 314°
2026-04-23 02:27 40.65185 -4.58186 38077 ft 427 kts 314°
2026-04-23 02:28 40.69585 -4.63390 38071 ft 427 kts 314°
2026-04-23 02:28 40.73998 -4.68618 38075 ft 427 kts 313°
2026-04-23 02:29 40.78391 -4.73835 38062 ft 428 kts 313°
2026-04-23 02:29 40.82792 -4.79069 38056 ft 428 kts 314°
2026-04-23 02:30 40.87195 -4.84316 38052 ft 429 kts 313°
2026-04-23 02:30 40.91607 -4.89583 38043 ft 428 kts 313°
2026-04-23 02:31 40.96012 -4.94852 38040 ft 430 kts 313°
2026-04-23 02:31 41.00428 -5.00144 38034 ft 430 kts 313°
2026-04-23 02:32 41.04852 -5.05455 38031 ft 429 kts 313°
2026-04-23 02:32 41.09255 -5.10753 38034 ft 431 kts 313°
2026-04-23 02:33 41.13668 -5.16071 38027 ft 431 kts 313°
2026-04-23 02:33 41.18079 -5.21396 38030 ft 430 kts 313°
2026-04-23 02:34 41.22499 -5.26744 38026 ft 430 kts 313°
2026-04-23 02:34 41.26900 -5.32078 38031 ft 431 kts 313°
2026-04-23 02:35 41.31311 -5.37436 38026 ft 433 kts 313°